Tracking 17694 objects as of 30-May-2016
HD Live streaming from Space Station
objects crossing your sky now

KOMPSAT 3

Track KOMPSAT 3 now!
10-day predictions
KOMPSAT 3 is classified as:


NORAD ID: 38338
Int'l Code: 2012-025B
Perigee: 687.9 km
Apogee: 703.7 km
Inclination: 98.2 °
Period: 98.5 minutes
Semi major axis: 7066 km
RCS: 5.2993 m2 (large)
Launch date: May 17, 2012
Source: South Korea (SKOR)
Launch site: TANEGASHIMA SPACE CENTER (TNSTA)
Uplink (MHz):
Downlink (MHz):
Beacon (MHz):
Mode:
Call sign:
Status:

Your satellite tracking list
Your tracking list is empty





NASA's NSSDC Master Catalog

Two Line Element Set (TLE):
1 38338U 12025B   16151.55728053  .00000122  00000-0  34062-4 0  9998
2 38338  98.1625  88.8107 0011178  87.9776 272.2702 14.61412359215299
Source of the keplerian elements: AFSPC

N2YO: 612